Location: Mentone
(34.5413°N, 85.5351°W)
Time: 03:09:32
(UTC-05:00)

Cosmos 2026 Rocket - Visible Passes

Search period start: 24 March 2017 00:00
Search period end: 03 April 2017 00:00
Orbit: 940 x 1001 km, 82.9° (Epoch: 22 March)

Date Brightness Start Highest point End Pass type
(mag) Time Alt. Az. Time Alt. Az. Time Alt. Az.
28 Mar 6.8 00:15:28 10° N 00:15:29 10° N 00:15:29 10° N visible
29 Mar 6.6 23:18:19 10° N 23:18:46 12° N 23:18:46 12° N visible
30 Mar 6.6 23:42:00 10° N 23:42:43 14° N 23:42:43 14° N visible
01 Apr 6.6 00:06:05 10° NNW 00:06:40 13° NNW 00:06:40 13° NNW visible
01 Apr 6.3 22:45:06 10° NNE 22:46:03 14° NNE 22:46:03 14° NNE visible
02 Apr 6.8 00:30:36 10° NNW 00:30:38 10° NNW 00:30:38 10° NNW visible
02 Apr 6.2 23:08:37 10° N 23:10:02 17° N 23:10:02 17° N visible
